This is the latest recevied weather packets stored in our database for station/object WD4ITN. If no packets are shown the sender has not sent any weather packets the latest 10 day(s).
| Time | Temp. | Humidity | Pressure | Rain* | Wind** | Luminosity | Snow |
|---|---|---|---|---|---|---|---|
| 1787583801 | 19.44° C | 74% | 1016.7 hPa | 0 mm | - | - | - |
| 1787583504 | 18.89° C | 75% | 1016.8 hPa | 0 mm | - | - | - |
| 1787583200 | 18.33° C | 76% | 1016.7 hPa | 0 mm | - | - | - |
| 1787582900 | 18.33° C | 74% | 1016.8 hPa | 0 mm | - | - | - |
| 1787582615 | 18.33° C | 74% | 1016.8 hPa | 0 mm | - | - | - |
| 1787582309 | 18.89° C | 72% | 1016.7 hPa | 0 mm | - | - | - |
| 1787582004 | 18.89° C | 74% | 1016.7 hPa | 0 mm | - | - | - |
| 1787581706 | 18.89° C | 73% | 1016.6 hPa | 0 mm | - | - | - |
| 1787581404 | 19.44° C | 73% | 1016.6 hPa | 0 mm | - | - | - |
| 1787581121 | 19.44° C | 75% | 1016.6 hPa | 0 mm | - | - | - |
| 1787580819 | 19.44° C | 75% | 1016.6 hPa | 0 mm | - | - | - |
| 1787580512 | 18.89° C | 77% | 1016.6 hPa | 0 mm | - | - | - |
| 1787580209 | 18.89° C | 75% | 1016.6 hPa | 0 mm | - | - | - |
| 1787579913 | 18.89° C | 77% | 1016.7 hPa | 0 mm | - | - | - |
| 1787579615 | 18.33° C | 78% | 1016.7 hPa | 0 mm | - | - | - |
| 1787579309 | 18.33° C | 78% | 1016.7 hPa | 0 mm | - | - | - |
| 1787579006 | 18.33° C | 82% | 1016.8 hPa | 0 mm | - | - | - |
| 1787578708 | 17.78° C | 84% | 1016.7 hPa | 0 mm | - | - | - |
| 1787578406 | 17.78° C | 86% | 1016.6 hPa | 0 mm | - | - | - |
| 1787578095 | 17.22° C | 87% | 1016.7 hPa | 0 mm | - | - | - |
| 1787577796 | 16.67° C | 91% | 1016.7 hPa | 0 mm | - | - | - |
| 1787577513 | 16.11° C | 92% | 1016.7 hPa | 0 mm | - | - | - |
| 1787577196 | 16.11° C | 94% | 1016.6 hPa | 0 mm | - | - | - |
| 1787576915 | 15.56° C | 94% | 1016.7 hPa | 0 mm | - | - | - |
| 1787576605 | 15.56° C | 95% | 1016.8 hPa | 0 mm | - | - | - |
* Rain since midnight (hover to see other rain measurements)
** Current wind speed in m/s (hover to see current wind gust speed)